Weather History for New Haven, CT

Change the Weather History Date:

Saturday, May 25, 2013

  Actual Average Record
Temperature  
Mean Temperature 48 °F -  
Max Temperature 51 °F 66 °F 90 °F (1975)
Min Temperature 46 °F 51 °F 44 °F (1992)
Degree Days  
Heating Degree Days 16    
Moisture  
Dew Point 42 °F    
Average Humidity 79    
Maximum Humidity 87    
Minimum Humidity 69    
Precipitation  
Precipitation 0.36 in - - ()
Sea Level Pressure  
Sea Level Pressure 29.84 in    
Wind  
Wind Speed 11 mph (NW)    
Max Wind Speed 20 mph    
Max Gust Speed 29 mph    
Visibility 9 miles    
Events Rain    
Averages and records for this station are not official NWS values.
T = Trace of Precipitation, MM = Missing Value Source: NWS Daily Summary

Daily Weather History Graph

Daily Weather History Graph

Search for Another Location

Airport:

Trip Planner

Search our weather history database for the weather conditions in past years. The results will help you decide how hot, cold, wet, or windy it might be!

Date:

Astronomy

May. 25, 2013 Rise Set
Actual Time 5:24 AM EDT 8:12 PM EDT
Civil Twilight 4:52 AM EDT 8:45 PM EDT
Nautical Twilight 4:11 AM EDT 9:26 PM EDT
Astronomical Twilight 3:24 AM EDT 10:13 PM EDT
Moon 8:57 PM EDT (5/25) 5:49 AM EDT (5/25)
Length of Visible Light 15h 53m
Length of Day
14h 48m
Full, 100% of the Moon is Illuminated
May 25
Full
May 31
Last Quarter
Jun 8
New
Jun 16
First Quarter
Jun 23
Full

Hourly Weather History & Observations

Time (EDT) Temp. Windchill Dew Point Humidity Pressure Visibility Wind Dir Wind Speed Gust Speed Precip Events Conditions
12:01 AM 50.0 °F - 44.6 °F 82% 29.87 in 10.0 mi WNW 10.4 mph - N/A   Overcast
12:53 AM 48.9 °F - 43.0 °F 80% 29.86 in 10.0 mi NNW 9.2 mph - 0.00 in   Overcast
1:53 AM 48.9 °F - 42.1 °F 77% 29.83 in 10.0 mi NNW 6.9 mph - 0.00 in   Overcast
2:33 AM 48.2 °F - 42.8 °F 82% 29.81 in 10.0 mi NNW 13.8 mph 19.6 mph N/A   Overcast
2:53 AM 48.0 °F - 42.1 °F 80% 29.82 in 10.0 mi NNW 10.4 mph 19.6 mph N/A   Overcast
3:39 AM 46.4 °F 41.9 °F 42.8 °F 87% 29.81 in 4.0 mi NW 9.2 mph 18.4 mph 0.12 in Rain Heavy Rain
3:43 AM 46.4 °F 41.9 °F 42.8 °F 87% 29.82 in 2.5 mi NW 9.2 mph 18.4 mph 0.15 in Rain Heavy Rain
3:53 AM 46.9 °F - 43.0 °F 86% 29.81 in 3.0 mi NNW 9.2 mph 17.3 mph 0.20 in Rain Heavy Rain
4:53 AM 46.9 °F - 43.0 °F 86% 29.81 in 10.0 mi NNW 10.4 mph 18.4 mph 0.09 in Rain Light Rain
5:53 AM 46.9 °F - 43.0 °F 86% 29.82 in 10.0 mi NNW 11.5 mph - 0.01 in Rain Light Rain
6:53 AM 48.0 °F - 43.0 °F 83% 29.83 in 10.0 mi NW 8.1 mph 19.6 mph 0.00 in   Overcast
7:53 AM 48.9 °F - 43.0 °F 80% 29.83 in 10.0 mi NNW 13.8 mph 19.6 mph N/A   Overcast
8:53 AM 50.0 °F - 42.1 °F 74% 29.83 in 10.0 mi North 15.0 mph 23.0 mph N/A   Overcast
9:53 AM 48.9 °F - 43.0 °F 80% 29.82 in 10.0 mi NNW 15.0 mph 24.2 mph 0.00 in Rain Light Rain
10:53 AM 50.0 °F - 42.1 °F 74% 29.82 in 10.0 mi North 12.7 mph 24.2 mph 0.00 in   Overcast
11:53 AM 51.1 °F - 44.1 °F 77% 29.83 in 10.0 mi NNW 11.5 mph 17.3 mph 0.00 in Rain Light Rain
12:53 PM 51.1 °F - 43.0 °F 74% 29.83 in 10.0 mi NW 12.7 mph 19.6 mph 0.00 in Rain Light Rain
1:53 PM 50.0 °F - 43.0 °F 77% 29.83 in 8.0 mi NW 10.4 mph 18.4 mph 0.02 in Rain Light Rain
2:53 PM 50.0 °F - 43.0 °F 77% 29.83 in 10.0 mi NNW 19.6 mph 28.8 mph 0.01 in Rain Light Rain
3:53 PM 48.9 °F - 42.1 °F 77% 29.84 in 5.0 mi NNW 12.7 mph 23.0 mph 0.02 in Rain Light Rain
4:25 PM 48.2 °F - 42.8 °F 82% 29.84 in 10.0 mi NNW 13.8 mph 21.9 mph 0.01 in Rain Light Rain
4:34 PM 48.2 °F - 42.8 °F 82% 29.84 in 10.0 mi NNW 11.5 mph 23.0 mph 0.01 in Rain Light Rain
4:53 PM 48.9 °F - 43.0 °F 80% 29.84 in 10.0 mi NW 10.4 mph 18.4 mph 0.01 in Rain Light Rain
5:53 PM 48.9 °F - 42.1 °F 77% 29.86 in 10.0 mi NW 11.5 mph 21.9 mph 0.00 in Rain Light Rain
6:53 PM 48.0 °F - 42.1 °F 80% 29.87 in 10.0 mi NW 9.2 mph 21.9 mph 0.00 in   Overcast
7:00 PM 48.2 °F - 42.8 °F 82% 29.87 in 10.0 mi NW 11.5 mph 19.6 mph N/A   Overcast
7:53 PM 48.9 °F - 41.0 °F 74% 29.88 in 10.0 mi WNW 11.5 mph 19.6 mph 0.00 in Rain Light Rain
8:53 PM 48.9 °F - 39.9 °F 71% 29.89 in 10.0 mi NW 11.5 mph 18.4 mph 0.00 in   Overcast
9:53 PM 48.9 °F - 39.9 °F 71% 29.91 in 10.0 mi NW 8.1 mph 16.1 mph 0.00 in   Overcast
10:53 PM 48.9 °F - 39.0 °F 69% 29.90 in 10.0 mi NW 8.1 mph 21.9 mph N/A   Overcast
11:53 PM 48.9 °F - 39.0 °F 69% 29.88 in 10.0 mi WNW 11.5 mph 23.0 mph N/A   Overcast